Weather History for Preston, MN

Change the Weather History Date:

Sunday, November 20, 2011

  Actual Average (KRST) Record (KRST)
Temperature  
Mean Temperature 28 °F 31 °F  
Max Temperature 30 °F 39 °F 65 °F (1930)
Min Temperature 25 °F 24 °F 2 °F (1985)
Degree Days  
Heating Degree Days 38 34  
Month to date heating degree days 567  
Since 1 July heating degree days 1303  
Cooling Degree Days 0 0  
Month to date cooling degree days 0  
Year to date cooling degree days 585  
Moisture  
Dew Point 24 °F    
Average Humidity 85    
Maximum Humidity 86    
Minimum Humidity 83    
Precipitation  
Precipitation 0.00 in 0.06 in 1.40 in (1973)
Month to date precipitation 1.31  
Year to date precipitation 31.19  
Snow  
Snow 0.00 in 0.20 in 5.20 in (1996)
Month to date snowfall 3.1  
Since 1 July snowfall 3.9  
Snow Depth -    
Sea Level Pressure  
Sea Level Pressure 30.25 in    
Wind  
Wind Speed 9 mph (North)    
Max Wind Speed 16 mph    
Max Gust Speed 21 mph    
Visibility 10 miles    
Events      
T = Trace of Precipitation, MM = Missing Value Source: NWS Daily Summary

Daily Weather History Graph

Daily Weather History Graph

Search for Another Location

Airport:

Trip Planner

Search our weather history database for the weather conditions in past years. The results will help you decide how hot, cold, wet, or windy it might be!

Date:

Astronomy

Nov. 20, 2011 Rise Set
Actual Time 7:08 AM CST 4:39 PM CST
Civil Twilight 6:37 AM CST 5:10 PM CST
Nautical Twilight 6:02 AM CST 5:45 PM CST
Astronomical Twilight 5:28 AM CST 6:19 PM CST
Moon 1:28 AM CST (11/20) 1:36 PM CST (11/20)
Length of Visible Light 10h 33m
Length of Day
9h 30m
Waning Crescent, 27% of the Moon is Illuminated
Nov 20
Waning Crescent
Nov 25
New
Dec 2
First Quarter
Dec 10
Full
Dec 17
Last Quarter

Hourly Weather History & Observations

Time (CST) Temp. Windchill Dew Point Humidity Pressure Visibility Wind Dir Wind Speed Gust Speed Precip Events Conditions
12:12 AM 30.6 °F 21.2 °F 26.4 °F 85% 30.07 in 10.0 mi North 11.5 mph 17.3 mph N/A   Overcast
12:32 AM 30.2 °F 20.8 °F 26.4 °F 86% 30.09 in 10.0 mi NNW 11.5 mph - N/A   Overcast
12:52 AM 30.2 °F 20.8 °F 26.1 °F 85% 30.09 in 10.0 mi NNW 11.5 mph 18.4 mph N/A   Overcast
1:13 AM 30.0 °F 20.5 °F 26.2 °F 86% 30.10 in 10.0 mi NNW 11.5 mph - N/A   Overcast
1:32 AM 29.3 °F 19.6 °F 25.5 °F 86% 30.11 in 10.0 mi NNW 11.5 mph 18.4 mph N/A   Overcast
1:52 AM 29.1 °F 18.9 °F 24.8 °F 84% 30.13 in 10.0 mi NNW 12.7 mph 17.3 mph N/A   Overcast
2:12 AM 29.1 °F 18.9 °F 24.8 °F 84% 30.13 in 10.0 mi North 12.7 mph - N/A   Overcast
2:33 AM 28.9 °F 19.8 °F 24.8 °F 84% 30.14 in 10.0 mi NNW 10.4 mph - N/A   Overcast
2:52 AM 28.6 °F 17.2 °F 24.6 °F 85% 30.14 in 10.0 mi NNW 15.0 mph 18.4 mph N/A   Overcast
3:12 AM 28.2 °F 16.3 °F 23.9 °F 84% 30.14 in 10.0 mi North 16.1 mph 20.7 mph N/A   Overcast
3:33 AM 28.0 °F 17.5 °F 23.9 °F 84% 30.15 in 10.0 mi NNW 12.7 mph - N/A   Overcast
3:53 AM 27.7 °F 16.6 °F 23.7 °F 85% 30.15 in 10.0 mi North 13.8 mph - N/A   Overcast
4:12 AM 27.5 °F 18.0 °F 23.5 °F 85% 30.18 in 10.0 mi North 10.4 mph - N/A   Overcast
4:32 AM 27.3 °F 17.7 °F 23.0 °F 84% 30.18 in 10.0 mi North 10.4 mph - N/A   Overcast
4:52 AM 27.0 °F 16.7 °F 22.8 °F 84% 30.19 in 10.0 mi North 11.5 mph - N/A   Overcast
5:12 AM 26.6 °F 18.2 °F 22.5 °F 84% 30.21 in 10.0 mi North 8.1 mph - N/A   Overcast
5:33 AM 26.6 °F 19.1 °F 22.6 °F 85% 30.21 in 10.0 mi NNW 6.9 mph - N/A   Overcast
5:52 AM 26.6 °F 19.1 °F 22.3 °F 84% 30.21 in 10.0 mi North 6.9 mph - N/A   Overcast
6:53 AM 26.4 °F 18.9 °F 22.1 °F 84% 30.24 in 10.0 mi North 6.9 mph - N/A   Overcast
7:12 AM 25.9 °F 17.4 °F 21.7 °F 84% 30.24 in 10.0 mi North 8.1 mph - N/A   Overcast
7:32 AM 25.7 °F 18.0 °F 21.7 °F 85% 30.25 in 10.0 mi North 6.9 mph - N/A   Overcast
7:52 AM 25.7 °F 20.1 °F 21.9 °F 86% 30.28 in 10.0 mi NW 4.6 mph - N/A   Overcast
8:12 AM 26.1 °F 18.4 °F 22.1 °F 85% 30.28 in 10.0 mi North 6.9 mph - N/A   Overcast
8:32 AM 26.2 °F 22.1 °F 22.3 °F 85% 30.28 in 10.0 mi NNW 3.5 mph - N/A   Overcast
8:52 AM 26.4 °F 20.9 °F 22.5 °F 85% 30.29 in 10.0 mi NW 4.6 mph - N/A   Overcast
9:12 AM 26.6 °F 21.2 °F 22.8 °F 86% 30.31 in 10.0 mi NW 4.6 mph - N/A   Overcast
9:33 AM 26.6 °F - 22.8 °F 86% 30.30 in 10.0 mi Calm Calm - N/A   Overcast
9:52 AM 26.8 °F 21.4 °F 23.0 °F 86% 30.30 in 10.0 mi North 4.6 mph - N/A   Overcast
10:12 AM 27.1 °F 20.7 °F 23.5 °F 86% 30.31 in 10.0 mi North 5.8 mph - N/A   Overcast
10:52 AM 27.5 °F 21.1 °F 23.9 °F 86% 30.31 in 10.0 mi North 5.8 mph - N/A   Overcast
11:12 AM 28.8 °F 21.7 °F 24.8 °F 85% 30.31 in 10.0 mi NNE 6.9 mph - N/A   Overcast
11:32 AM 28.9 °F 21.9 °F 24.8 °F 84% 30.31 in 10.0 mi NNW 6.9 mph - N/A   Overcast
11:52 AM 29.3 °F 21.5 °F 25.5 °F 86% 30.31 in 10.0 mi NNW 8.1 mph - N/A   Overcast
12:12 PM 29.1 °F 24.1 °F 24.8 °F 84% 30.32 in 10.0 mi North 4.6 mph - N/A   Overcast
12:33 PM 29.3 °F 23.2 °F 25.2 °F 85% 30.31 in 10.0 mi NNE 5.8 mph - N/A   Overcast
12:53 PM 29.3 °F 23.2 °F 25.0 °F 84% 30.31 in 10.0 mi North 5.8 mph - N/A   Overcast
1:12 PM 29.8 °F 23.0 °F 25.5 °F 84% 30.30 in 10.0 mi North 6.9 mph - N/A   Overcast
2:12 PM 30.2 °F 25.4 °F 25.9 °F 84% 30.29 in 10.0 mi North 4.6 mph - N/A   Overcast
2:32 PM 29.7 °F 23.7 °F 25.3 °F 84% 30.30 in 10.0 mi North 5.8 mph - N/A   Overcast
2:52 PM 29.7 °F 22.0 °F 25.7 °F 85% 30.30 in 10.0 mi North 8.1 mph - N/A   Overcast
3:13 PM 29.3 °F 21.5 °F 25.3 °F 85% 30.31 in 10.0 mi North 8.1 mph - N/A   Overcast
3:52 PM 28.6 °F - 24.6 °F 85% 30.32 in 10.0 mi Calm Calm - N/A   Overcast
4:13 PM 28.8 °F - 24.8 °F 85% 30.32 in 10.0 mi Calm Calm - N/A   Overcast
4:33 PM 28.9 °F 25.2 °F 24.8 °F 84% 30.32 in 10.0 mi ESE 3.5 mph - N/A   Overcast
5:12 PM 28.8 °F - 24.8 °F 85% 30.31 in 10.0 mi Calm Calm - N/A   Overcast
5:33 PM 29.1 °F 23.0 °F 25.2 °F 85% 30.31 in 10.0 mi ESE 5.8 mph - N/A   Overcast
5:52 PM 29.1 °F - 25.2 °F 85% 30.31 in 10.0 mi Calm Calm - N/A   Overcast
6:12 PM 29.3 °F - 25.3 °F 85% 30.31 in 10.0 mi Calm Calm - N/A   Overcast
6:32 PM 29.3 °F - 25.5 °F 86% 30.31 in 10.0 mi Calm Calm - N/A   Overcast
6:52 PM 29.5 °F 25.9 °F 25.5 °F 85% 30.31 in 10.0 mi NE 3.5 mph - N/A   Overcast
7:12 PM 29.8 °F - 25.7 °F 85% 30.30 in 10.0 mi Calm Calm - N/A   Overcast
7:32 PM 30.2 °F 26.7 °F 25.7 °F 83% 30.30 in 10.0 mi ESE 3.5 mph - N/A   Overcast
7:52 PM 30.4 °F 25.6 °F 25.7 °F 83% 30.30 in 10.0 mi ESE 4.6 mph - N/A   Overcast
8:12 PM 30.7 °F 27.3 °F 26.1 °F 83% 30.30 in 10.0 mi ESE 3.5 mph - N/A   Overcast
8:32 PM 30.7 °F 26.0 °F 26.2 °F 83% 30.30 in 10.0 mi SE 4.6 mph - N/A   Overcast
8:52 PM 30.9 °F 26.2 °F 26.4 °F 83% 30.30 in 10.0 mi SE 4.6 mph - N/A   Overcast
9:12 PM 31.1 °F 24.5 °F 26.6 °F 83% 30.30 in 10.0 mi SE 6.9 mph - N/A   Overcast
9:32 PM 30.6 °F 24.7 °F 26.6 °F 85% 30.30 in 10.0 mi SSE 5.8 mph - N/A   Overcast
9:52 PM 30.6 °F 25.8 °F 27.0 °F 86% 30.30 in 10.0 mi SE 4.6 mph - N/A   Overcast
10:12 PM 30.4 °F 23.6 °F 26.8 °F 86% 30.29 in 10.0 mi SSE 6.9 mph - N/A   Overcast
10:32 PM 30.2 °F 26.7 °F 27.0 °F 88% 30.29 in 10.0 mi SSE 3.5 mph - N/A   Overcast
10:52 PM 30.2 °F 26.7 °F 27.0 °F 88% 30.28 in 10.0 mi SSE 3.5 mph - N/A   Overcast
11:12 PM 29.8 °F 26.3 °F 26.6 °F 88% 30.28 in 10.0 mi SSE 3.5 mph - N/A   Overcast
11:32 PM 28.9 °F 25.2 °F 26.1 °F 89% 30.28 in 10.0 mi South 3.5 mph - N/A   Scattered Clouds
11:52 PM 28.4 °F - 26.1 °F 91% 30.28 in 10.0 mi Calm Calm - N/A   Clear